Regional Weather Roundup
Issued by NWS

Home | Current Version | Previous Version | Graphics & Text | Print | Product List | Glossary On
Versions: 1 2 3 4 5 6 7 8 9 10 11 12 13 14 15 16 17 18 19 20 21 22 23 24 25 26 27 28 29 30 31 32 33 34 35 36 37 38 39 40 41 42 43 44 45 46 47 48 49 50
000
ASUS45 KBOU 270607
RWRCO

WEATHER ROUNDUP FOR COLORADO
NATIONAL WEATHER SERVICE DENVER/BOULDER CO
1200 AM MDT WED AUG 27 2014

NOTE: "FAIR" INDICATES FEW OR NO CLOUDS BELOW 12000 FEET WITH NO
SIGNIFICANT WEATHER AND/OR OBSTRUCTIONS TO VISIBILITY.

COZ001>005-013-030-031-270700-
...NORTHWEST COLORADO...

CITY           SKY/WX    TMP DP  RH WIND       PRES   REMARKS
CRAIG          CLOUDY    57  50  77 W7        30.26S
HAYDEN         CLOUDY    57  46  67 SE5       30.27F
MEEKER         CLOUDY    59  50  72 SW3       30.29S
MOUNT WERNER   NOT AVBL
STEAMBOAT SPGS CLOUDY    52  50  92 NW5       30.29F
WALDEN         CLOUDY    50  43  76 E3        30.36F
$$

COZ006>008-011-270700-
...WEST CENTRAL VALLEYS...

CITY           SKY/WX    TMP DP  RH WIND       PRES   REMARKS
GRAND JUNCTION CLOUDY    58  57  97 SE7       30.24S
MONTROSE       LGT RAIN  57  55  93 CALM      30.33S
EAGLE          CLOUDY    57  54  88 NW3       30.34S
RIFLE          LGT RAIN  57  53  86 W14       30.27R
DELTA          RAIN      59  57  94 E5        30.28F
NUCLA          CLOUDY    55  52  88 SE7       30.32S
$$

COZ017>023-064>068-270700-
...SOUTHWEST COLORADO...

CITY           SKY/WX    TMP DP  RH WIND       PRES   REMARKS
DURANGO        LGT RAIN  54  52  93 N12       30.32F
CORTEZ         MOCLDY    56  53  90 N8        30.28S
PAGOSA SPRINGS HVY RAIN  55  55  97 W7        30.41R
TELLURIDE      RAIN      48  46  93 E3        30.47F
WOLF CREEK PAS RAIN      39  39 100 SW20G26   30.59S VSB 1/4
$$

COZ009-010-012-014-032>034-037-058>063-270700-
...CENTRAL COLORADO...

CITY           SKY/WX    TMP DP  RH WIND       PRES   REMARKS
ASPEN          LGT RAIN  53  50  89 N3        30.36F
BUENA VISTA    CLOUDY    53  49  86 NW6       30.39F
COPPER MTN     DRIZZLE   45  39  81 S12       30.61F
BERTHOUD PASS  CLOUDY    37  37 100 SE8       30.66S
COTTONWOOD PAS CLOUDY    50  46  87 CALM      30.49S FOG
GUNNISON       CLOUDY    54  48  82 CALM      30.38F
KREMMLING      CLOUDY    54  50  87 CALM      30.36F
LEADVILLE      RAIN      45  43  93 N3        30.49S FOG
MONARCH PASS   FOG       41  41 100 E5        30.69F VSB<1/4
SALIDA         CLOUDY    56  53  89 CALM      30.44S
SUNLIGHT       LGT RAIN  46  45  93 CALM      30.54F
WILKERSON PASS NOT AVBL
$$

COZ069>075-270700-
...SAN LUIS VALLEY/SANGRE DE CRISTO MOUNTAINS...

CITY           SKY/WX    TMP DP  RH WIND       PRES   REMARKS
ALAMOSA        CLOUDY    53  51  93 E5        30.35S
LA VETA PASS   NOT AVBL
SAGUACHE       CLOUDY    54  50  87 CALM      30.37F
$$

COZ035-036-038>040-270700-
...NORTHERN COLORADO FRONT RANGE...

CITY           SKY/WX    TMP DP  RH WIND       PRES   REMARKS
DENVER INTL AP CLOUDY    63  53  70 SW10      30.21S
DMNS CITY PARK   N/A     61  54  77 S7        30.21S
AURORA         MOCLDY    62  53  73 S6        30.24F
FRONT RANGE AP CLOUDY    63  55  77 S8        30.23S
ERIE MUNI ARPT CLOUDY    65  51  62 SE3       30.19F
BOULDER MUN AP CLOUDY    64  50  59 SW7       30.18F
CENTENNIAL     CLOUDY    62  52  69 S6        30.25S
BROOMFIELD     CLOUDY    63  52  67 SW3       30.22F
FORT COLLINS   CLOUDY    63  54  72 CALM      30.19S
LONGMONT       CLOUDY    65  57  77 CALM      30.20S
$$

COZ041-046-047-076>085-087-088-270700-
...PIKES PEAK/PALMER DIVIDE AND SOUTHERN FOOTHILLS...

CITY           SKY/WX    TMP DP  RH WIND       PRES   REMARKS
COLO. SPRINGS  CLOUDY    62  54  74 CALM      30.30F
A. F. ACADEMY  CLOUDY    57  55  94 N6        30.31F
ELLICOTT       CLOUDY    60  55  83 CALM      30.28S
FALCON         CLOUDY    58  55  91 SW3       30.34F
FORT CARSON    CLOUDY    62  53  72 E2        30.27F
LIMON          CLOUDY    63  57  81 S6        30.24F
MONUMENT HILL  RAIN      54  52  94 SW3       30.34S
TRINIDAD       CLOUDY    63  56  78 W7        30.25S
$$

COZ042>045-048>051-090-091-270700-
...NORTHEAST COLORADO...

CITY           SKY/WX    TMP DP  RH WIND       PRES   REMARKS
GREELEY ARPT   CLOUDY    63  54  72 E5        30.18S
AKRON          MOCLDY    67  62  84 S15G25    30.18F
BURLINGTON     CLOUDY    64  61  90 E9        30.18F
WRAY             N/A     69  59  70 S8G16     30.17S
STERLING       MOCLDY    70  64  83 SE5       30.13F
HOLYOKE        CLOUDY    68  63  83 SE7       30.16F
FORT MORGAN    MOCLDY    64  60  90 NE7       30.18F
$$

COZ086-089-092>099-270700-
...SOUTHEAST COLORADO...

CITY           SKY/WX    TMP DP  RH WIND       PRES   REMARKS
PUEBLO         CLOUDY    66  58  75 E9        30.19F
LA JUNTA       CLOUDY    66  63  90 S3        30.17F
LAMAR          MOCLDY    66  63  90 S5        30.15S
SPRINGFIELD      N/A     62  61  96 S17       30.21R
$$


USA.gov is the U.S. government's official web portal to all federal, state and local government web resources and services.